Back to catalog

METEOR 2-12 DEB

AlivePO
NORAD 59994·DEBRIS·🇷🇺 Russia

Launched Feb 6, 1985 from Plesetsk Cosmodrome

Loading…

Next Passes (next 24 hours)

TLE

AgingSource: Space-Track

Epoch: Sep 7, 2026, 16:35 UTC

1 59994U 85013E   26250.69158802  .00000747  00000-0  49114-3 0  9997
2 59994  82.5172 217.0802 0026336 257.5578 279.6106 14.00616840650341

Track METEOR 2-12 DEB in real time with AllMySat

Download on the App Store